EN

Hourly Weather Topolinek

Today, 12 April, Monday

Time Temperature Precipitation Wind Pressure Humidity
00:00 +6°C° 0 mm 4 mps 751 mmHg 89%
01:00 +5°C° 0 mm 5 mps 752 mmHg 90%
02:00 +5°C° 0.1 mm 5 mps 753 mmHg 90%
03:00 +3°C° 0.1 mm 5 mps 753 mmHg 89%
04:00 +2°C° 0.1 mm 5 mps 754 mmHg 89%
05:00 +2°C° 0 mm 5 mps 755 mmHg 87%
06:00 +1°C° 0 mm 5 mps 755 mmHg 86%
07:00 +1°C° 0 mm 5 mps 756 mmHg 84%
08:00 +1°C° 0.1 mm 5 mps 757 mmHg 82%
09:00 +2°C° 0.1 mm 5 mps 757 mmHg 79%
10:00 +2°C° 0.1 mm 5 mps 758 mmHg 76%
11:00 +3°C° 0.2 mm 5 mps 758 mmHg 72%
12:00 +3°C° 0.2 mm 5 mps 759 mmHg 67%
13:00 +5°C° 0.2 mm 5 mps 759 mmHg 62%
14:00 +6°C° 0 mm 5 mps 759 mmHg 58%
15:00 +6°C° 0 mm 5 mps 759 mmHg 53%
16:00 +6°C° 0 mm 4 mps 759 mmHg 49%
17:00 +5°C° 0 mm 4 mps 760 mmHg 53%
18:00 +4°C° 0 mm 3 mps 760 mmHg 58%
19:00 +4°C° 0 mm 2 mps 760 mmHg 62%
20:00 +4°C° 0 mm 2 mps 761 mmHg 63%
21:00 +4°C° 0 mm 2 mps 761 mmHg 64%
22:00 +3°C° 0 mm 2 mps 761 mmHg 65%
23:00 +3°C° 0 mm 2 mps 761 mmHg 69%

Tomorrow, 13 April, Tuesday

Time Temperature Precipitation Wind Pressure Humidity
00:00 +2°C° 0 mm 2 mps 761 mmHg 72%
01:00 +2°C° 0 mm 2 mps 762 mmHg 76%
02:00 +1°C° 0 mm 2 mps 762 mmHg 79%
03:00 -1°C° 0 mm 2 mps 762 mmHg 81%
04:00 -1°C° 0 mm 2 mps 762 mmHg 84%
05:00 0°C° 0 mm 3 mps 762 mmHg 79%
06:00 0°C° 0 mm 3 mps 763 mmHg 74%
07:00 0°C° 0 mm 4 mps 763 mmHg 69%
08:00 +3°C° 0 mm 4 mps 763 mmHg 63%
09:00 +4°C° 0 mm 4 mps 763 mmHg 56%
10:00 +6°C° 0 mm 4 mps 763 mmHg 50%
11:00 +7°C° 0 mm 5 mps 763 mmHg 47%
12:00 +7°C° 0 mm 5 mps 763 mmHg 44%
13:00 +8°C° 0 mm 5 mps 762 mmHg 41%
14:00 +8°C° 0 mm 5 mps 762 mmHg 42%
15:00 +8°C° 0 mm 5 mps 762 mmHg 44%
16:00 +8°C° 0 mm 5 mps 762 mmHg 46%
17:00 +6°C° 0.1 mm 4 mps 762 mmHg 54%
18:00 +5°C° 0.1 mm 3 mps 762 mmHg 62%
19:00 +3°C° 0.1 mm 3 mps 762 mmHg 70%
20:00 +3°C° 0 mm 3 mps 762 mmHg 74%
21:00 +2°C° 0 mm 3 mps 762 mmHg 78%
22:00 +2°C° 0 mm 2 mps 763 mmHg 81%
23:00 +1°C° 0 mm 3 mps 762 mmHg 83%

Day after tomorrow, 14 April, Wednesday

Time Temperature Precipitation Wind Pressure Humidity
00:00 0°C° 0 mm 3 mps 762 mmHg 85%
01:00 -1°C° 0 mm 3 mps 762 mmHg 87%
02:00 -1°C° 0 mm 3 mps 762 mmHg 89%
03:00 -1°C° 0 mm 3 mps 762 mmHg 91%
04:00 -2°C° 0 mm 3 mps 762 mmHg 93%
05:00 -1°C° 0 mm 3 mps 762 mmHg 90%
06:00 0°C° 0 mm 3 mps 762 mmHg 87%
07:00 0°C° 0 mm 4 mps 762 mmHg 84%
08:00 +1°C° 0 mm 4 mps 762 mmHg 75%
09:00 +4°C° 0 mm 4 mps 762 mmHg 65%
10:00 +5°C° 0 mm 5 mps 762 mmHg 56%
11:00 +6°C° 0.1 mm 5 mps 762 mmHg 55%
12:00 +6°C° 0.1 mm 5 mps 762 mmHg 53%
13:00 +6°C° 0.1 mm 5 mps 761 mmHg 52%
14:00 +6°C° 0.1 mm 5 mps 761 mmHg 53%
15:00 +6°C° 0.1 mm 5 mps 761 mmHg 54%
16:00 +6°C° 0.1 mm 5 mps 761 mmHg 55%
17:00 +5°C° 0 mm 4 mps 761 mmHg 62%
18:00 +4°C° 0 mm 4 mps 761 mmHg 68%
19:00 +3°C° 0 mm 3 mps 761 mmHg 74%
20:00 +2°C° 0 mm 3 mps 761 mmHg 77%
21:00 +1°C° 0 mm 3 mps 762 mmHg 81%
22:00 0°C° 0 mm 3 mps 762 mmHg 84%
23:00 0°C° 0 mm 3 mps 762 mmHg 83%

15 April, Thursday

Time Temperature Precipitation Wind Pressure Humidity
00:00 0°C° 0 mm 3 mps 762 mmHg 83%
01:00 -1°C° 0 mm 3 mps 762 mmHg 83%
02:00 -1°C° 0 mm 3 mps 762 mmHg 82%
03:00 -1°C° 0 mm 3 mps 762 mmHg 82%
04:00 -1°C° 0 mm 3 mps 762 mmHg 82%
05:00 0°C° 0 mm 3 mps 762 mmHg 80%
06:00 +1°C° 0 mm 3 mps 762 mmHg 78%
07:00 0°C° 0 mm 4 mps 762 mmHg 75%
08:00 +1°C° 0 mm 4 mps 762 mmHg 70%
09:00 +3°C° 0 mm 4 mps 762 mmHg 64%
10:00 +3°C° 0 mm 5 mps 762 mmHg 59%
11:00 +3°C° 0 mm 5 mps 762 mmHg 57%
12:00 +5°C° 0 mm 5 mps 762 mmHg 55%
13:00 +5°C° 0 mm 5 mps 761 mmHg 53%
14:00 +5°C° 0 mm 5 mps 761 mmHg 58%
15:00 +3°C° 0 mm 5 mps 761 mmHg 62%
16:00 +3°C° 0 mm 6 mps 761 mmHg 66%
17:00 +2°C° 0.2 mm 5 mps 761 mmHg 74%
18:00 +1°C° 0.2 mm 5 mps 761 mmHg 82%
19:00 0°C° 0.2 mm 5 mps 761 mmHg 90%
20:00 0°C° 0.6 mm 5 mps 761 mmHg 92%
21:00 0°C° 0.6 mm 5 mps 760 mmHg 94%
22:00 -1°C° 0.6 mm 6 mps 760 mmHg 96%
23:00 0°C° 1.1 mm 5 mps 759 mmHg 96%

16 April, Friday

Time Temperature Precipitation Wind Pressure Humidity
00:00 0°C° 1.1 mm 5 mps 759 mmHg 96%
01:00 0°C° 1.1 mm 5 mps 758 mmHg 97%
02:00 0°C° 0.9 mm 4 mps 758 mmHg 96%
03:00 +1°C° 0.9 mm 4 mps 758 mmHg 95%
04:00 +1°C° 0.9 mm 4 mps 758 mmHg 95%
05:00 +1°C° 0.5 mm 4 mps 758 mmHg 94%
06:00 +1°C° 0.5 mm 4 mps 758 mmHg 93%
07:00 +3°C° 0.5 mm 4 mps 758 mmHg 92%
08:00 +3°C° 0.1 mm 4 mps 759 mmHg 90%
09:00 +3°C° 0.1 mm 5 mps 759 mmHg 88%
10:00 +5°C° 0.1 mm 5 mps 759 mmHg 85%
11:00 +5°C° 0 mm 4 mps 759 mmHg 84%
12:00 +5°C° 0 mm 4 mps 759 mmHg 84%
13:00 +5°C° 0 mm 4 mps 759 mmHg 83%
14:00 +5°C° 0.1 mm 3 mps 759 mmHg 84%
15:00 +5°C° 0.1 mm 3 mps 760 mmHg 85%
16:00 +5°C° 0.1 mm 3 mps 760 mmHg 86%
17:00 +5°C° 0.1 mm 3 mps 760 mmHg 87%
18:00 +5°C° 0.1 mm 3 mps 760 mmHg 89%
19:00 +5°C° 0.1 mm 3 mps 760 mmHg 90%
20:00 +4°C° 0.1 mm 3 mps 760 mmHg 91%
21:00 +4°C° 0.1 mm 3 mps 761 mmHg 92%
22:00 +4°C° 0.1 mm 3 mps 761 mmHg 93%
23:00 +4°C° 0 mm 3 mps 761 mmHg 93%

17 April, Saturday

Time Temperature Precipitation Wind Pressure Humidity
00:00 +4°C° 0 mm 3 mps 761 mmHg 94%
01:00 +5°C° 0 mm 2 mps 761 mmHg 95%
02:00 +5°C° 0 mm 2 mps 760 mmHg 95%
03:00 +5°C° 0 mm 2 mps 760 mmHg 95%
04:00 +5°C° 0 mm 2 mps 760 mmHg 95%
05:00 +4°C° 0.2 mm 3 mps 760 mmHg 95%
06:00 +4°C° 0.2 mm 3 mps 760 mmHg 95%
07:00 +5°C° 0.2 mm 3 mps 760 mmHg 95%
08:00 +5°C° 0.1 mm 3 mps 760 mmHg 95%
09:00 +5°C° 0.1 mm 3 mps 760 mmHg 95%
10:00 +5°C° 0.1 mm 3 mps 761 mmHg 95%
11:00 +5°C° 0 mm 3 mps 761 mmHg 93%
12:00 +7°C° 0 mm 3 mps 761 mmHg 92%
13:00 +7°C° 0 mm 3 mps 761 mmHg 91%
14:00 +7°C° 0.2 mm 3 mps 761 mmHg 92%
15:00 +7°C° 0.2 mm 3 mps 760 mmHg 93%
16:00 +7°C° 0.2 mm 3 mps 760 mmHg 95%
17:00 +7°C° 0.1 mm 3 mps 760 mmHg 95%
18:00 +7°C° 0.1 mm 3 mps 760 mmHg 95%
19:00 +7°C° 0.1 mm 3 mps 760 mmHg 95%
20:00 +6°C° 0.1 mm 4 mps 760 mmHg 95%
21:00 +6°C° 0.1 mm 4 mps 760 mmHg 95%
22:00 +6°C° 0.1 mm 4 mps 760 mmHg 95%
23:00 +7°C° 0.1 mm 4 mps 760 mmHg 95%
Show more

We Need Your Consent

Meteoprog and our Service Providers may store and access personal data such as cookies, device identifiers or other similar technologies on your device and process such data to personalise content and ads, as well as provide social media features and to analyse the traffic.

  • Store and/or access information on your device

    Cookies, device identifiers or other information can be stored or accessed on your device for the purposes indicated above.

  • Personalised ads and content, ad and content measurement, audience insights, and products development

    Ads and content can be personalised based on a profile. More data can be added to better personalise ads and content. Ad and content performance can be measured. Insights about the audience who saw the ads and content can be derived. Such data can be used to develop or improve user’s experience, systems and software.

By clicking ‘I Agree’ you will allow the use of indicated cookies, device identifiers, web beacons or other similar technologies. Your settings can be changed in the browser on your device.

For certain purposes, legitimate interests may be relied on, rather than consent. You can read more about this in our Privacy and Cookie Policy.